Location: Mount Cross
(36.6390°N, 79.4878°W)
Time: 17:55:37
(UTC+00:00)

Courier 1B Rocket - Pass Details

Date: 21 March 2023
Orbit: 920 x 1202 km, 28.2° (Epoch: 08 June)

Event Time Altitude Azimuth Distance (km) Brightness Sun altitude
Rises 08:00:33 0° 262° (W) 3,547 - -38.6°
Reaches altitude 10° 08:03:48 10° 246° (WSW) 2,610 - -38.0°
Maximum altitude 08:08:13 20° 201° (SSW) 1,997 - -37.3°
Drops below altitude 10° 08:12:44 10° 156° (SSE) 2,674 - -36.6°
Exits shadow 08:15:19 - 143° (SE) 3,406 7.9 -36.1°
Sets 08:16:08 0° 140° (SE) 3,662 8.1 -36.0°
